Regional Weather Roundup
Issued by NWS Tiyan, Guam

Home | Current Version | Previous Version | Text Only | Print | Product List | Glossary On
Versions: 1 2 3 4 5 6 7 8 9 10 11 12 13 14 15 16 17 18 19 20 21 22 23 24 25 26 27 28 29 30 31 32 33 34 35 36 37
000
ASGM40 PGUM 230212
RWRGUM
WEATHER ROUNDUP FOR THE MARIANAS
NATIONAL WEATHER SERVICE TIYAN GU
1200 PM CHST THU OCT 23 2014

GUZ001>004-230300-
MARIANA ISLANDS-

CITY           SKY/WX    TMP DP  RH WIND       PRES   REMARKS
GUAM AIRPORT   CLOUDY    86  75  70 NE12      29.81F HX  95
ANDERSEN AFB   PTSUNNY   82  77  83 N9        29.82F HX  91
ROTA AIRPORT   MOSUNNY   84  77  79 NE14      29.83S HX  94
TINIAN AP      MOSUNNY   86  77  74 NE12      29.79F HX  97
SAIPAN AP      SUNNY     88  77  70 E10       29.80F HX 100

$$




USA.gov is the U.S. government's official web portal to all federal, state and local government web resources and services.